Regional Weather Roundup
Issued by NWS

Home | Current Version | Previous Version | Graphics & Text | Print | Product List | Glossary Off
Versions: 1 2 3 4 5 6 7 8 9 10 11 12 13 14 15 16 17 18 19 20 21 22 23 24 25 26 27 28 29 30 31 32 33 34 35 36 37 38 39 40 41 42 43 44 45 46 47 48 49 50

000
ASUS43 KMKX 210500
RWRWI

WISCONSIN REGIONAL WEATHER ROUNDUP
NATIONAL WEATHER SERVICE MILWAUKEE/SULLIVAN WI
1200 AM CDT TUE OCT 21 2014

NOTE: "FAIR" INDICATES FEW OR NO CLOUDS BELOW 12,000 FEET WITH NO
SIGNIFICANT WEATHER AND/OR OBSTRUCTIONS TO VISIBILITY.

WIZ001-002-006>008-014>016-023>028-210600-
NORTHWEST WISCONSIN

CITY           SKY/WX    TMP DP  RH WIND       PRES   REMARKS
SUPERIOR ARPT  CLOUDY    48  39  70 NE9       30.12S
ASHLAND        CLOUDY    45  38  76 NE12G21   30.14R
HAYWARD        CLOUDY    46  39  76 NE5       30.11R
SIREN          CLOUDY    46  38  75 NE3       30.10S
CUMBERLAND     CLOUDY    45  37  76 N5        30.09S
RICE LAKE      CLOUDY    46  40  80 N5        30.10S
CHETEK         CLEAR     41  40  96 N5        30.09R
LADYSMITH      CLOUDY    47  40  74 N6        30.10S
EAU CLAIRE     NOT AVBL
MENOMONIE      CLEAR     44  38  80 CALM      30.08S
NEW RICHMOND   CLEAR     35  35  99 CALM      30.09S
OSCEOLA        CLEAR     36  36 100 CALM      30.12S
$$

WIZ003>005-009-010-017-018-210600-
NORTH CENTRAL WISCONSIN

CITY           SKY/WX    TMP DP  RH WIND       PRES   REMARKS
MANITOWISH WTR DRIZZLE   40  39  97 N3        30.09S
ARBOR VITAE    CLOUDY    42  39  91 N9        30.09R
WOODRUFF       CLOUDY    42  39  91 N9        30.09R
RHINELANDER    MOCLDY    39  37  92 VRB3      30.08S
EAGLE RIVER    CLOUDY    39  37  91 N6        30.07S WCI  35
LAND O LAKES   CLOUDY    40  37  87 N5        30.09S
PHILLIPS       CLOUDY    43  40  91 N8        30.08S
TOMAHAWK       CLOUDY    42  37  83 CALM      30.09R
MEDFORD        CLOUDY    45  39  82 N5        30.07R
MERRILL        CLOUDY    43  40  89 NE9       30.07S
$$

WIZ029-030-035-036-043>047-210600-
CENTRAL WISCONSIN

CITY           SKY/WX    TMP DP  RH WIND       PRES   REMARKS
WAUSAU         CLOUDY    44  39  82 NE6       30.06R
MOSINEE        DRIZZLE   45  41  87 N7        30.07S
MARSHFIELD     CLOUDY    48  40  73 N5        30.06S
STEVENS POINT  CLOUDY    44  38  81 N3        30.06S
WAUPACA        CLOUDY    50  41  72 N5        30.06R
WAUTOMA        NOT AVBL
WISC RAPIDS    CLOUDY    48  40  73 NE5       30.07S
CAMP DOUGLAS   NOT AVBL
$$

WIZ011>013-019>022-031-037>040-048>050-210600-
NORTHEAST WISCONSIN

CITY           SKY/WX    TMP DP  RH WIND       PRES   REMARKS
ANTIGO         CLOUDY    41  38  87 N8        30.06S
SHAWANO        CLOUDY    47  39  73 N8        30.06R
OCONTO         CLOUDY    44  40  88 N6        30.04S
STURGEON BAY   CLOUDY    46  37  71 N18G24    30.03S
GREEN BAY      CLOUDY    46  39  76 N8        30.04S
MANITOWOC      NOT AVBL
APPLETON       CLOUDY    45  37  76 N7        30.04S
CLINTONVILLE   CLOUDY    46  37  71 N5        30.06R
OSHKOSH        CLOUDY    48  40  73 N10       30.03S
$$

WIZ032>034-041-042-053>061-210600-
SOUTHWEST WISCONSIN

CITY           SKY/WX    TMP DP  RH WIND       PRES   REMARKS
LA CROSSE      CLEAR     43  40  89 CALM      30.06S
SPARTA         CLEAR     39  36  89 CALM      30.07S
VIROQUA        PTCLDY    44  38  78 N3        30.05S
BOSCOBEL       CLEAR     40  38  93 CALM      30.06S FOG
PRAIRIE DU CHI CLEAR     45  39  81 CALM      30.05S
PLATTEVILLE    CLEAR     45  39  81 CALM      30.05S
$$

WIZ056-057-062-063-064-067-068-210600-
SOUTH CENTRAL WISCONSIN

CITY           SKY/WX    TMP DP  RH WIND       PRES   REMARKS
REEDSBURG      MOCLDY    49  39  69 N6        30.04F
BARABOO/DELLS  CLOUDY    49  39  66 N3        30.04S
LONE ROCK      NOT AVBL
MINERAL POINT  PTCLDY    45  37  76 N5        30.04S
MADISON        CLOUDY    50  39  66 N5        30.03S
MIDDLETON      CLOUDY    50  39  66 N6        30.04R
WATERTOWN      CLOUDY    49  42  77 N8        30.02S
MONROE         PTCLDY    46  41  81 N8        30.03S
JANESVILLE     CLOUDY    52  39  62 N5        30.01S
$$

WIZ051-052-058>065-066-070>072-210600-
SOUTHEAST WISCONSIN

CITY           SKY/WX    TMP DP  RH WIND       PRES   REMARKS
MILWAUKEE      CLOUDY    49  42  77 NW6       30.02R
WAUKESHA       CLOUDY    46  41  81 N12G17    30.03R
MILWAUKEE/TIMM CLOUDY    46  41  81 N8        30.02S
RACINE         CLOUDY    51  42  71 N13G21    30.02S
BURLINGTON     CLOUDY    48  41  76 NW3       30.01S
KENOSHA        CLOUDY    50  43  77 N3        30.00F
FOND DU LAC    CLOUDY    48  42  80 N7        30.03S
SHEBOYGAN      CLOUDY    47  41  80 N8        30.02R
WEST BEND      CLOUDY    46  41  81 NW6       30.01F
JUNEAU         CLOUDY    47  42  81 N6        30.04S
$$

LSZ147-162-210600-
LAKE SUPERIOR

STATION/POSITION TIME  TEMP    WIND        PRES    WAVE
                       AIR SEA DIR/SP/G            HT/PER
                 (UTC) (F)     (DEG/KT/KT) (MB)    (FT/S)
W MID LAKE BUOY  0350   44 46   30/ 17/ 19 1020.6R   3/ 5
DEVILS ISLAND    0400   45      50/ 20/ 22 1021.1R
PORT WING        0400   49      60/  9/ 13 1020.3
SAXON HARBOR     0400   47      60/ 15/ 19 1020.0
$$

LMZ867-665-643>646-210600-
LAKE MICHIGAN

STATION/POSITION TIME  TEMP    WIND        PRES    WAVE
                       AIR SEA DIR/SP/G            HT/PER
                 (UTC) (F)     (DEG/KT/KT) (MB)    (FT/S)
CHAMBERS ISLAND  0400   47     330/ 17/ 20 1017.3
N MID LAKE BUOY  0350   46 51  340/ 21/ 27 1015.2R   4/ 5
NORTHPORT PIER   0406   47     340/ 22/ 26 1016.3R
KEWAUNEE LAKESHO 0400   47     350/  5/  8 1015.7R
SHEBOYGAN LAKESH 0400   49 50  350/ 12/ 14 1016.8R
PORT WASHINGTON  0400   50     320/  5/  7 1016.9S
ATWATER BUOY     0430   51     330/ 12/ 14 1017.1R
MILWAUKEE LAKESH 0400   51     350/ 11/ 15   N/A
S MID LAKE BUOY  0350   52 54  340/ 17/ 19 1015.3R   3/ 5
KENOSHA   LAKESH 0400   51     340/  6/  7 1015.9S
$$

TC  - TEMPERATURE IN CELSIUS
VSB - VISIBILITY IN STATUTE MILES
WCI - WIND CHILL INDEX
HX  - HEAT INDEX



USA.gov is the U.S. government's official web portal to all federal, state and local government web resources and services.